User: anonymous   Login
Location: Brookfield Village
(37.7352°N, 122.1861°W)
Time: 01:41:38
(UTC+00:00)
Language:

Cosmos 1125 Rocket - Orbit

View from above orbital plane
View from above orbital plane
View from above satellite
View from above satellite

Ground track
Ground track

The orbit data is extracted from the following two-line orbital elements,

1 11511U 79078B   24287.47231016  .00001191  00000-0  40371-3 0  9997
2 11511  74.0347  76.0945 0015141  23.2191 336.9644 14.37777997362611
Epoch (UTC): 13 October 2024 11:20:07
Eccentricity: 0.0015141
inclination: 74.0347°
perigee height: 755 km
apogee height: 776 km
right ascension of ascending node: 76.0945°
argument of perigee: 23.2191°
revolutions per day: 14.37777997
mean anomaly at epoch: 336.9644°
orbit number at epoch: 36261

The dashed part of the orbit path shows where the satellite is in the earth's shadow,  

DLR